This is the latest recevied weather packets stored in our database for station/object SV4JYD-14. If no packets are shown the sender has not sent any weather packets the latest 10 day(s).
| Time | Temp. | Humidity | Pressure | Rain* | Wind** | Luminosity | Snow |
|---|---|---|---|---|---|---|---|
| 1777501324 | 15° C | 72% | 1017 hPa | 0 mm | - | - | - |
| 1777500424 | 15° C | 70% | 1017 hPa | 0 mm | - | - | - |
| 1777496823 | 15.56° C | 64% | 1016 hPa | 0 mm | - | - | - |
| 1777494122 | 16.11° C | 59% | 1016 hPa | 0 mm | - | - | - |
| 1777493222 | 16.11° C | 57% | 1016 hPa | 0 mm | - | - | - |
| 1777491421 | 16.67° C | 58% | 1016 hPa | 0 mm | - | - | - |
| 1777490521 | 16.67° C | 59% | 1016 hPa | 0 mm | - | - | - |
| 1777487820 | 17.22° C | 56% | 1016 hPa | 0 mm | - | - | - |
| 1777486920 | 17.22° C | 56% | 1016 hPa | 0 mm | - | - | - |
| 1777483319 | 19.44° C | 51% | 1015 hPa | 0 mm | - | - | - |
| 1777482418 | 20° C | 50% | 1015 hPa | 0 mm | - | - | - |
| 1777480618 | 20.56° C | 43% | 1015 hPa | 0 mm | - | - | - |
| 1777479718 | 22.22° C | 31% | 1015 hPa | 0 mm | - | - | - |
| 1777473416 | 20.56° C | 47% | 1015 hPa | 0 mm | - | - | - |
| 1777472516 | 20.56° C | 48% | 1016 hPa | 0 mm | - | - | - |
| 1777471615 | 21.11° C | 47% | 1016 hPa | 0 mm | - | - | - |
| 1777469815 | 22.22° C | 40% | 1016 hPa | 0 mm | - | - | - |
| 1777468915 | 22.22° C | 40% | 1016 hPa | 0 mm | - | - | - |
| 1777468014 | 22.22° C | 35% | 1016 hPa | 0 mm | - | - | - |
| 1777467114 | 22.22° C | 35% | 1016 hPa | 0 mm | - | - | - |
| 1777466214 | 22.22° C | 35% | 1016 hPa | 0 mm | - | - | - |
| 1777465313 | 21.67° C | 40% | 1017 hPa | 0 mm | - | - | - |
| 1777463513 | 21.67° C | 37% | 1017 hPa | 0 mm | - | - | - |
| 1777462613 | 21.67° C | 37% | 1017 hPa | 0 mm | - | - | - |
| 1777461712 | 20.56° C | 43% | 1017 hPa | 0 mm | - | - | - |
* Rain latest hour (hover to see other rain measurements)
** Current wind speed in m/s (hover to see current wind gust speed)